Flag for Honduras Weather past 2 weeks in Tegucigalpa, Honduras

Now
64 °F

Scattered clouds.


Feels Like: 64 °F
Forecast: 62 / 91 °F
Wind: 5 mph from Southwest

Location: Tegucigalpa Airport

Current Time: Apr 25, 2015 at 7:23:01 AM

Latest Report: Apr 25, 2015 at 7:00 AM


Visibility: 2 mi

Pressure: 30.09 "Hg

Humidity: 83%

Dew point: 59 °F

Location of TegucigalpaLocation

Historic Weather in Tegucigalpa — Graph

°F

Tegucigalpa temperature yesterday

Maximum temperature yesterday: 91 °F (at 1:00 PM)
Minimum temperature yesterday: 59 °F (at 6:00 AM)
Average temperature yesterday: 77 °F

Past Weeks' High & Low Weather Summary

 TemperatureHumidityPressure
High93 °F (Apr 21, 2:00 PM)100% (Apr 10, 6:00 AM)30.15 "Hg (Apr 10, 6:00 AM)
Low59 °F (Apr 24, 6:00 AM)20% (Apr 24, 3:00 PM)29.92 "Hg (Apr 18, 4:00 PM)
Average77 °F57%30.05 "Hg
* Reported Apr 10 6:00 AM — Apr 25 6:00 AM, Tegucigalpa, Weather by CustomWeather, © 2015

Note: Actual official high and low records may vary slightly from our data, if they occured in-between our weather recording intervals... More about our weather records

Advertising

Tegucigalpa weather history for previous 24 hours

 ConditionsComfort  
Time TempWeatherWind HumidityBarometerVisibility
6:00 AM
Sat, Apr 25
63 °FScattered clouds.5 mph83%30.07 "Hg2 mi
5:00 AM63 °FPassing clouds.5 mph83%30.07 "Hg4 mi
4:00 AM63 °FPassing clouds.5 mph83%30.07 "Hg4 mi
3:00 AM66 °FPassing clouds.7 mph73%30.04 "HgN/A
2:00 AM68 °FPassing clouds.9 mph73%30.04 "HgN/A
1:00 AM68 °FPassing clouds.5 mph73%30.07 "HgN/A
12:00 AM72 °FPassing clouds.No wind65%30.09 "HgN/A
11:00 PM
Fri, Apr 24
72 °FPassing clouds.No wind61%30.09 "HgN/A
10:00 PM75 °FPassing clouds.5 mph61%30.09 "HgN/A
9:00 PM77 °FPassing clouds.5 mph54%30.09 "HgN/A
8:00 PM79 °FClear.7 mph48%30.07 "Hg5 mi
7:02 PM82 °FClear.2 mph37%30.04 "Hg5 mi
7:00 PM82 °FPassing clouds.2 mph37%30.04 "Hg5 mi
6:00 PM86 °FScattered clouds.5 mph27%30.01 "Hg5 mi
5:00 PM90 °FScattered clouds.9 mph22%29.98 "Hg4 mi
4:00 PM91 °FPassing clouds.7 mph20%29.98 "Hg4 mi
3:00 PM91 °FPassing clouds.9 mph20%29.98 "Hg4 mi
2:00 PM91 °FPassing clouds.9 mph21%30.01 "Hg4 mi
1:00 PM91 °FPassing clouds.8 mph21%30.04 "Hg4 mi
12:00 PM88 °FPassing clouds.8 mph33%30.07 "Hg4 mi
11:00 AM84 °FPassing clouds.7 mph37%30.09 "Hg2 mi
10:00 AM81 °FPassing clouds.6 mph51%30.09 "Hg2 mi
9:00 AM77 °FPassing clouds.5 mph57%30.12 "Hg2 mi
8:00 AM70 °FPassing clouds.No wind69%30.12 "Hg1 mi
7:00 AM64 °FPassing clouds.No wind83%30.12 "Hg1 mi
Weather by CustomWeather, © 2015

See weather overviewHow to use our weather pages